Voltar ao catálogo

STARLINK-35523

AtivoComunicaçõesVLEO
NORAD 65910·PAYLOAD·🇺🇸 United States

Lançado Oct 8, 2025 de Vandenberg Space Force Base

Loading…

Próximas Passagens (próximas 24 horas)

TLE

AtualizadoSource: CelesTrak SupGP

Época: Sep 14, 2026, 14:25 UTC

1 65910C 25225A   26257.60118056 -.00043082  00000+0 -12732-2 0  2578
2 65910  53.1596   5.2287 0001243  74.6684 273.8593 15.34403249    14

Acompanhe STARLINK-35523 em tempo real com AllMySat

Download on the App Store